Terminal Aerodrome Forecast
Issued by NWS Blacksburg, VA

Current Version | Previous Version | Graphics & Text | Print | Product List | Glossary On
Versions: 1 2 3 4 5 6 7 8 9 10 11 12 13 14 15 16 17 18 19 20 21 22 23 24 25 26 27 28 29 30 31
000
FTUS41 KRNK 230531
TAFBLF
TAF
KBLF 230531Z 2306/2406 VRB04KT P6SM SCT250
     FM231500 16009G19KT P6SM SCT025 OVC100
     FM231700 16012G24KT P6SM -RA SCT025 OVC060
     FM232000 15012G22KT 6SM -RA OVC025
     FM240000 16015G25KT 4SM -RA BR OVC015
      TEMPO 2400/2404 2SM RA BR OVC008=

USA.gov is the U.S. government's official web portal to all federal, state and local government web resources and services.